Time,TemperatureF,DewpointF,PressureIn,WindDirection,WindDirectionDegrees,WindSpeedMPH,WindSpeedGustMPH,Humidity,HourlyPrecipIn,Conditions,Clouds,dailyrainin,SoftwareType,DateUTC
2013-01-26 00:10:00,50.4,44.0,30.13,North,353,8.0,9.0,78,0.00,,,0.00,weatherlink.com 1.10,2013-01-26 06:10:00,
2013-01-26 00:25:00,50.1,44.0,30.14,North,353,5.0,7.0,79,0.00,,,0.00,weatherlink.com 1.10,2013-01-26 06:25:00,
2013-01-26 00:40:00,49.9,44.0,30.14,North,357,5.0,7.0,79,0.00,,,0.00,weatherlink.com 1.10,2013-01-26 06:40:00,
2013-01-26 00:55:00,49.6,43.0,30.14,North,3,1.0,8.0,79,0.00,,,0.00,weatherlink.com 1.10,2013-01-26 06:55:00,
2013-01-26 01:10:00,49.2,43.0,30.13,North,10,5.0,7.0,80,0.00,,,0.00,weatherlink.com 1.10,2013-01-26 07:10:00,
2013-01-26 01:25:00,49.2,43.0,30.12,North,10,4.0,5.0,80,0.00,,,0.00,weatherlink.com 1.10,2013-01-26 07:25:00,
2013-01-26 01:40:00,49.4,44.0,30.13,North,10,3.0,5.0,80,0.00,,,0.00,weatherlink.com 1.10,2013-01-26 07:40:00,
2013-01-26 01:55:00,49.4,44.0,30.13,North,356,6.0,8.0,80,0.00,,,0.00,weatherlink.com 1.10,2013-01-26 07:55:00,
2013-01-26 02:10:00,49.3,43.0,30.13,North,6,6.0,9.0,80,0.00,,,0.00,weatherlink.com 1.10,2013-01-26 08:10:00,
2013-01-26 02:25:00,49.3,43.0,30.13,NNE,13,5.0,10.0,80,0.00,,,0.00,weatherlink.com 1.10,2013-01-26 08:25:00,
2013-01-26 02:40:00,49.4,44.0,30.12,North,7,4.0,8.0,80,0.00,,,0.00,weatherlink.com 1.10,2013-01-26 08:40:00,
2013-01-26 02:55:00,49.6,44.0,30.12,North,5,5.0,8.0,80,0.00,,,0.00,weatherlink.com 1.10,2013-01-26 08:55:00,
2013-01-26 03:10:00,49.9,44.0,30.12,North,5,3.0,7.0,81,0.00,,,0.00,weatherlink.com 1.10,2013-01-26 09:10:00,
2013-01-26 03:25:00,50.0,44.0,30.11,North,11,3.0,6.0,81,0.00,,,0.00,weatherlink.com 1.10,2013-01-26 09:25:00,
2013-01-26 03:40:00,50.0,45.0,30.11,North,11,1.0,6.0,82,0.00,,,0.00,weatherlink.com 1.10,2013-01-26 09:40:00,
2013-01-26 03:55:00,50.0,45.0,30.11,North,9,4.0,7.0,83,0.00,,,0.00,weatherlink.com 1.10,2013-01-26 09:55:00,
2013-01-26 04:10:00,49.7,45.0,30.11,North,4,5.0,8.0,84,0.00,,,0.00,weatherlink.com 1.10,2013-01-26 10:10:00,
2013-01-26 04:25:00,49.5,45.0,30.11,North,6,7.0,7.0,85,0.00,,,0.00,weatherlink.com 1.10,2013-01-26 10:25:00,
2013-01-26 04:40:00,49.2,45.0,30.11,NNE,20,6.0,7.0,86,0.00,,,0.00,weatherlink.com 1.10,2013-01-26 10:40:00,
2013-01-26 04:55:00,48.9,46.0,30.11,NNE,20,4.0,7.0,88,0.00,,,0.00,weatherlink.com 1.10,2013-01-26 10:55:00,
2013-01-26 05:10:00,48.7,46.0,30.11,NNE,20,4.0,5.0,89,0.00,,,0.00,weatherlink.com 1.10,2013-01-26 11:10:00,
2013-01-26 05:25:00,48.4,46.0,30.12,NNE,20,4.0,6.0,90,0.00,,,0.00,weatherlink.com 1.10,2013-01-26 11:25:00,
2013-01-26 05:40:00,48.2,46.0,30.12,NNE,20,5.0,6.0,91,0.00,,,0.00,weatherlink.com 1.10,2013-01-26 11:40:00,
2013-01-26 05:55:00,48.2,46.0,30.12,NNE,20,3.0,4.0,92,0.00,,,0.00,weatherlink.com 1.10,2013-01-26 11:55:00,
2013-01-26 06:10:00,48.1,46.0,30.12,NNE,20,3.0,5.0,92,0.00,,,0.00,weatherlink.com 1.10,2013-01-26 12:10:00,
2013-01-26 06:25:00,48.0,46.0,30.12,NNE,20,2.0,3.0,93,0.00,,,0.00,weatherlink.com 1.10,2013-01-26 12:25:00,
2013-01-26 06:40:00,48.0,46.0,30.12,NNE,20,1.0,1.0,93,0.00,,,0.00,weatherlink.com 1.10,2013-01-26 12:40:00,
2013-01-26 06:55:00,48.1,46.0,30.13,NNE,20,0.0,3.0,93,0.00,,,0.00,weatherlink.com 1.10,2013-01-26 12:55:00,
2013-01-26 07:10:00,48.1,46.0,30.13,NNE,20,0.0,3.0,93,0.00,,,0.00,weatherlink.com 1.10,2013-01-26 13:10:00,
2013-01-26 07:25:00,48.2,46.0,30.14,NNE,20,0.0,2.0,93,0.00,,,0.00,weatherlink.com 1.10,2013-01-26 13:25:00,
2013-01-26 07:40:00,48.3,47.0,30.14,NNE,20,0.0,1.0,94,0.00,,,0.00,weatherlink.com 1.10,2013-01-26 13:40:00,
2013-01-26 07:55:00,48.5,47.0,30.14,NNE,20,0.0,3.0,94,0.00,,,0.00,weatherlink.com 1.10,2013-01-26 13:55:00,
2013-01-26 08:10:00,48.5,47.0,30.15,NNE,20,1.0,4.0,94,0.00,,,0.00,weatherlink.com 1.10,2013-01-26 14:10:00,
2013-01-26 08:25:00,48.5,47.0,30.15,NNE,20,2.0,4.0,94,0.00,,,0.00,weatherlink.com 1.10,2013-01-26 14:25:00,
2013-01-26 08:41:00,48.8,47.0,30.15,NNE,20,3.0,4.0,94,0.00,,,0.00,weatherlink.com 1.10,2013-01-26 14:41:00,
2013-01-26 08:55:00,48.9,47.0,30.16,NNE,20,3.0,4.0,94,0.00,,,0.00,weatherlink.com 1.10,2013-01-26 14:55:00,
2013-01-26 09:10:00,49.2,48.0,30.16,NNE,20,4.0,5.0,94,0.00,,,0.00,weatherlink.com 1.10,2013-01-26 15:10:00,
2013-01-26 09:25:00,49.4,48.0,30.16,NNE,20,2.0,6.0,94,0.00,,,0.00,weatherlink.com 1.10,2013-01-26 15:25:00,
2013-01-26 09:40:00,49.7,48.0,30.16,NNE,20,3.0,4.0,94,0.00,,,0.00,weatherlink.com 1.10,2013-01-26 15:40:00,
2013-01-26 09:55:00,50.1,48.0,30.16,NNE,20,0.0,4.0,93,0.00,,,0.00,weatherlink.com 1.10,2013-01-26 15:55:00,
2013-01-26 10:10:00,50.4,49.0,30.16,NNE,20,1.0,4.0,93,0.00,,,0.00,weatherlink.com 1.10,2013-01-26 16:10:00,
2013-01-26 10:25:00,50.7,49.0,30.16,NNE,21,0.0,4.0,93,0.00,,,0.00,weatherlink.com 1.10,2013-01-26 16:25:00,
2013-01-26 10:40:00,50.9,49.0,30.16,NNE,20,0.0,3.0,93,0.00,,,0.00,weatherlink.com 1.10,2013-01-26 16:40:00,
2013-01-26 10:55:00,51.3,49.0,30.16,NNE,20,3.0,3.0,93,0.00,,,0.00,weatherlink.com 1.10,2013-01-26 16:55:00,
2013-01-26 11:11:00,51.8,50.0,30.16,NNE,20,0.0,3.0,92,0.00,,,0.00,weatherlink.com 1.10,2013-01-26 17:11:00,
2013-01-26 11:26:00,52.4,50.0,30.15,NNE,20,1.0,4.0,91,0.00,,,0.00,weatherlink.com 1.10,2013-01-26 17:26:00,
2013-01-26 11:56:00,53.8,51.0,30.15,NNE,20,0.0,2.0,89,0.00,,,0.00,weatherlink.com 1.10,2013-01-26 17:56:00,
2013-01-26 12:11:00,54.3,51.0,30.14,NNE,21,0.0,3.0,88,0.00,,,0.00,weatherlink.com 1.10,2013-01-26 18:11:00,
2013-01-26 12:26:00,54.9,51.0,30.13,NNE,20,0.0,2.0,87,0.00,,,0.00,weatherlink.com 1.10,2013-01-26 18:26:00,
2013-01-26 12:41:00,55.8,51.0,30.12,NNE,21,2.0,3.0,85,0.00,,,0.00,weatherlink.com 1.10,2013-01-26 18:41:00,
2013-01-26 12:56:00,56.5,52.0,30.11,NNE,21,2.0,3.0,84,0.00,,,0.00,weatherlink.com 1.10,2013-01-26 18:56:00,
2013-01-26 13:11:00,57.1,52.0,30.10,NNE,21,0.0,4.0,83,0.00,,,0.00,weatherlink.com 1.10,2013-01-26 19:11:00,
2013-01-26 13:26:00,57.5,52.0,30.10,NNE,21,3.0,3.0,82,0.00,,,0.00,weatherlink.com 1.10,2013-01-26 19:26:00,
2013-01-26 13:41:00,57.7,52.0,30.09,NNE,20,0.0,2.0,82,0.00,,,0.00,weatherlink.com 1.10,2013-01-26 19:41:00,
2013-01-26 13:56:00,57.9,52.0,30.09,NNE,20,2.0,4.0,82,0.00,,,0.00,weatherlink.com 1.10,2013-01-26 19:56:00,
2013-01-26 14:11:00,57.8,52.0,30.08,NNE,20,2.0,4.0,82,0.00,,,0.00,weatherlink.com 1.10,2013-01-26 20:11:00,
2013-01-26 14:26:00,58.2,52.0,30.07,NNE,20,3.0,4.0,81,0.00,,,0.00,weatherlink.com 1.10,2013-01-26 20:26:00,
2013-01-26 14:41:00,58.7,53.0,30.07,NNE,20,0.0,4.0,81,0.00,,,0.00,weatherlink.com 1.10,2013-01-26 20:41:00,
2013-01-26 14:56:00,59.2,53.0,30.07,NNE,20,0.0,3.0,80,0.00,,,0.00,weatherlink.com 1.10,2013-01-26 20:56:00,
2013-01-26 15:11:00,59.5,53.0,30.07,NNE,20,1.0,3.0,80,0.00,,,0.00,weatherlink.com 1.10,2013-01-26 21:11:00,
2013-01-26 15:26:00,59.4,53.0,30.06,NNE,20,0.0,2.0,80,0.00,,,0.00,weatherlink.com 1.10,2013-01-26 21:26:00,
2013-01-26 15:41:00,59.5,54.0,30.06,NNE,20,0.0,1.0,81,0.00,,,0.00,weatherlink.com 1.10,2013-01-26 21:41:00,
2013-01-26 15:56:00,60.0,54.0,30.06,NNE,21,1.0,3.0,81,0.00,,,0.00,weatherlink.com 1.10,2013-01-26 21:56:00,
2013-01-26 16:11:00,60.0,55.0,30.06,NNE,20,1.0,3.0,82,0.00,,,0.00,weatherlink.com 1.10,2013-01-26 22:11:00,
2013-01-26 16:26:00,60.6,55.0,30.05,NNE,20,1.0,4.0,83,0.00,,,0.00,weatherlink.com 1.10,2013-01-26 22:26:00,
2013-01-26 16:41:00,61.1,56.0,30.05,NNE,20,2.0,4.0,82,0.00,,,0.00,weatherlink.com 1.10,2013-01-26 22:41:00,
2013-01-26 16:56:00,61.2,55.0,30.06,NNE,20,3.0,4.0,81,0.00,,,0.00,weatherlink.com 1.10,2013-01-26 22:56:00,
2013-01-26 17:11:00,61.3,55.0,30.05,NNE,20,1.0,3.0,81,0.00,,,0.00,weatherlink.com 1.10,2013-01-26 23:11:00,
2013-01-26 17:26:00,61.4,56.0,30.05,NNE,20,0.0,2.0,82,0.00,,,0.00,weatherlink.com 1.10,2013-01-26 23:26:00,
2013-01-26 17:41:00,61.2,56.0,30.05,NNE,20,0.0,4.0,82,0.00,,,0.00,weatherlink.com 1.10,2013-01-26 23:41:00,
2013-01-26 17:56:00,60.8,56.0,30.05,NNE,20,3.0,4.0,83,0.00,,,0.00,weatherlink.com 1.10,2013-01-26 23:56:00,
2013-01-26 18:12:00,59.9,56.0,30.05,NNE,25,5.0,6.0,87,0.00,,,0.00,weatherlink.com 1.10,2013-01-27 00:12:00,
2013-01-26 18:26:00,59.4,56.0,30.05,NNE,25,2.0,4.0,88,0.00,,,0.00,weatherlink.com 1.10,2013-01-27 00:26:00,
2013-01-26 18:41:00,58.8,55.0,30.06,NNE,25,3.0,4.0,88,0.00,,,0.00,weatherlink.com 1.10,2013-01-27 00:41:00,
2013-01-26 18:56:00,58.2,55.0,30.06,NNE,25,3.0,4.0,89,0.00,,,0.00,weatherlink.com 1.10,2013-01-27 00:56:00,
2013-01-26 19:11:00,57.8,55.0,30.07,NNE,25,4.0,5.0,90,0.00,,,0.00,weatherlink.com 1.10,2013-01-27 01:11:00,
2013-01-26 19:26:00,57.3,55.0,30.06,NNE,25,5.0,6.0,91,0.00,,,0.00,weatherlink.com 1.10,2013-01-27 01:26:00,
2013-01-26 19:41:00,56.9,54.0,30.07,NE,38,3.0,7.0,91,0.00,,,0.00,weatherlink.com 1.10,2013-01-27 01:41:00,
2013-01-26 19:56:00,56.8,55.0,30.07,NE,38,4.0,6.0,92,0.00,,,0.00,weatherlink.com 1.10,2013-01-27 01:56:00,
2013-01-26 20:11:00,56.6,54.0,30.07,NE,43,4.0,6.0,92,0.00,,,0.00,weatherlink.com 1.10,2013-01-27 02:11:00,
2013-01-26 20:26:00,56.4,54.0,30.07,NE,43,1.0,5.0,92,0.00,,,0.00,weatherlink.com 1.10,2013-01-27 02:26:00,
2013-01-26 20:41:00,56.3,54.0,30.07,ENE,60,6.0,8.0,92,0.00,,,0.00,weatherlink.com 1.10,2013-01-27 02:41:00,
2013-01-26 20:56:00,56.2,54.0,30.07,East,92,5.0,10.0,93,0.00,,,0.00,weatherlink.com 1.10,2013-01-27 02:56:00,
2013-01-26 21:11:00,56.2,54.0,30.07,East,92,7.0,9.0,93,0.00,,,0.00,weatherlink.com 1.10,2013-01-27 03:11:00,
2013-01-26 21:27:00,56.0,54.0,30.07,East,92,4.0,6.0,94,0.00,,,0.00,weatherlink.com 1.10,2013-01-27 03:27:00,
2013-01-26 21:42:00,56.0,54.0,30.07,East,92,3.0,5.0,94,0.00,,,0.00,weatherlink.com 1.10,2013-01-27 03:42:00,
2013-01-26 21:57:00,56.2,55.0,30.07,East,92,5.0,8.0,94,0.00,,,0.00,weatherlink.com 1.10,2013-01-27 03:57:00,
2013-01-26 22:12:00,56.5,55.0,30.07,ESE,113,5.0,9.0,93,0.00,,,0.00,weatherlink.com 1.10,2013-01-27 04:12:00,
2013-01-26 22:27:00,56.2,54.0,30.07,ESE,113,4.0,5.0,93,0.00,,,0.00,weatherlink.com 1.10,2013-01-27 04:27:00,
2013-01-26 22:42:00,56.7,55.0,30.07,ESE,113,4.0,5.0,93,0.00,,,0.00,weatherlink.com 1.10,2013-01-27 04:42:00,
2013-01-26 22:57:00,56.9,55.0,30.08,ESE,113,4.0,7.0,92,0.00,,,0.00,weatherlink.com 1.10,2013-01-27 04:57:00,
2013-01-26 23:12:00,56.9,55.0,30.07,ESE,113,5.0,8.0,92,0.00,,,0.00,weatherlink.com 1.10,2013-01-27 05:12:00,
2013-01-26 23:27:00,56.9,55.0,30.07,SE,146,6.0,11.0,93,0.00,,,0.00,weatherlink.com 1.10,2013-01-27 05:27:00,
2013-01-26 23:42:00,57.3,55.0,30.07,SE,146,5.0,10.0,93,0.00,,,0.00,weatherlink.com 1.10,2013-01-27 05:42:00,
2013-01-26 23:57:00,58.6,57.0,30.07,SSE,166,13.0,13.0,93,0.00,,,0.00,weatherlink.com 1.10,2013-01-27 05:57:00,